Location: Bagebi
(41.7000°N, 44.7333°E)
Time: 12:08:17
(UTC+00:00)

Daily predictions for brighter satellites

Satellite Brightness Start Highest point End
(mag) Time Altitude Azimuth Time Altitude Azimuth Time Altitude Azimuth
CZ-4B DEB 4.2 13:52:37 10° SSE 13:58:06 80° ENE 14:03:35 10° NNW
Cosmos 2278 Rocket 4.2 13:54:11 10° NW 13:59:15 34° WSW 14:04:17 10° SSW
CZ-4C R/B 3.1 14:01:19 10° N 14:04:58 85° WNW 14:08:32 10° SSW
Cosmos 2285 Rocket 4.1 13:58:47 10° NNW 14:05:05 56° ENE 14:11:17 10° SE
USA 267 4.5 14:00:32 10° ENE 14:05:33 24° N 14:10:35 10° NW
CORIOLIS 4.4 14:03:59 10° SE 14:09:10 49° ENE 14:14:24 10° N
PAYLOAD B 4.3 14:05:18 10° SSE 14:10:53 85° ENE 14:16:28 10° NNW
USA 81 4.3 14:06:22 10° N 14:11:28 47° E 14:16:32 10° SSE
COSMO-SKYMED 1 4.0 14:10:05 10° NE 14:13:13 19° E 14:16:21 10° SE
H-2A R/B 3.8 14:14:32 10° ENE 14:14:53 10° ENE 14:15:12 10° NE
Cosmos 2181 Rocket 4.1 14:10:28 10° S 14:16:49 68° E 14:23:07 10° NNE
BREEZE-M R/B 2.6 14:13:23 10° WNW 14:18:02 81° NNE 14:20:07 10° ESE
Meteor 1-20 Rocket 4.3 14:16:15 10° N 14:22:07 73° E 14:27:54 10° SSE
X-37B 0.6 14:19:13 10° WSW 14:22:23 83° NNW 14:24:55 15° ENE
Cosmos 2237 Rocket 4.1 14:19:10 10° WSW 14:23:43 25° NW 14:28:19 10° N
Meteor 1-4 Rocket 2.8 14:20:59 10° S 14:24:27 47° E 14:27:52 10° NNE
Cosmos 1689 Rocket 4.3 14:25:07 10° ESE 14:25:07 10° ESE 14:25:24 10° ESE
Cosmos 1328 Rocket 3.5 14:20:21 10° S 14:24:37 66° E 14:28:55 10° NNE
NOAA 11 4.3 14:19:24 10° SE 14:24:37 51° ENE 14:29:53 10° N
Cosmos 1812 4.3 14:23:03 10° SE 14:25:21 15° E 14:26:19 14° ENE
CZ-4B R/B 3.1 14:20:23 10° SSE 14:25:41 81° ENE 14:31:00 10° NNW
Cosmos 1939 Rocket 3.8 14:23:01 10° SE 14:26:15 26° ENE 14:29:30 10° NNE
Meteor 1-26 Rocket 4.4 14:21:23 10° S 14:27:20 65° E 14:33:17 10° NNE
Cosmos 1603 4.3 14:22:57 10° S 14:28:02 37° ESE 14:33:05 10° NE
CZ-4 R/B 3.2 14:29:24 13° NE 14:29:24 13° NE 14:30:34 10° NNE
Cosmos 1933 Rocket 4.3 14:25:45 10° NNE 14:29:46 32° ENE 14:33:45 10° SE
CENTAUR R/B 3.8 14:27:02 10° SE 14:30:47 18° ESE 14:33:16 14° ENE
Cosmos 1666 Rocket 3.8 14:26:26 10° N 14:30:53 76° W 14:35:19 10° S
ADEOS Rocket 4.3 14:23:54 10° N 14:31:25 55° WNW 14:38:49 10° SW
Cosmos 1943 3.9 14:26:32 10° SSE 14:31:34 35° ESE 14:36:16 12° NE
Cosmos 44 4.0 14:26:18 10° NW 14:31:36 66° WSW 14:36:57 10° SSE
H-2A R/B 3.5 14:29:50 10° S 14:33:58 50° W 14:37:58 10° NNW
Cosmos 2369 Rocket 2.5 14:30:14 10° NNW 14:35:41 45° ENE 14:41:05 10° SE
NOAA 12 4.2 14:30:51 10° SSE 14:36:11 86° W 14:41:32 10° NNW
Cosmos 1602 3.8 14:32:29 10° N 14:36:21 55° E 14:40:08 10° SSE
Cosmos 1538 Rocket 4.1 14:31:22 10° S 14:36:40 67° ESE 14:42:01 10° NNE
Cosmos 1943 Rocket 2.1 14:32:00 10° NNW 14:37:35 76° ENE 14:43:10 10° SSE
SL-23 DEB 4.1 14:37:26 10° WSW 14:40:54 71° NNW 14:44:49 17° NE
CZ-2D R/B 4.1 14:40:58 10° SE 14:44:15 28° ENE 14:47:34 10° N
H-2A R/B 3.1 14:41:21 10° N 14:45:24 45° WNW 14:49:31 10° SW
Okean O Rocket 1.9 14:42:17 10° S 14:46:37 70° WSW 14:51:01 10° NNW
Okean-O 3.6 14:44:34 10° ESE 14:48:10 25° ENE 14:51:47 10° NNE
Cosmos 1782 2.7 14:45:59 10° S 14:49:56 89° W 14:53:56 10° N
Cosmos 2218 Rocket 4.1 14:47:49 10° N 14:53:58 79° W 15:00:08 10° S
Cosmos 2366 rocket 4.1 14:48:52 10° N 14:55:04 80° W 15:01:11 10° S
Cosmos 1633 Rocket 4.1 14:50:54 10° NNW 14:55:07 48° W 14:59:17 10° SSW
ISS -1.8 14:57:41 10° NNW 14:59:55 16° N 15:00:01 16° N
FALCON 9 R/B 2.4 14:59:16 10° SW 15:00:56 18° S 15:01:40 16° SSE
SKYMED 2 3.5 14:57:17 10° NNE 15:01:32 64° E 15:05:50 10° S
NOSS 3-2 (A) 3.4 14:57:46 10° SSW 15:03:08 53° ESE 15:06:35 24° NE
ERS-2 2.2 15:01:35 11° N 15:05:03 79° WNW 15:08:42 10° SSW
Feng Yun 1-1 Rocket 4.2 15:06:07 10° SSE 15:11:54 89° NE 15:17:32 10° NNW
Lacrosse 5 rocket 3.4 15:11:24 10° NW 15:13:18 14° NNW 15:14:37 12° N
USA 215 3.3 15:11:59 26° ENE 15:15:50 66° SE 15:22:19 10° SW
SL-16 R/B 4.1 15:12:08 10° WSW 15:16:47 26° NW 15:21:27 10° N
USA 238 DEB 3.6 15:15:47 10° SSW 15:22:14 66° ESE 15:25:38 31° NE
USA 238 3.6 15:15:53 10° SSW 15:22:20 66° ESE 15:25:42 31° NE
CZ-4B R/B 3.3 15:23:17 11° NNW 15:25:53 27° WNW 15:28:38 10° SW
ATLAS CENTAUR R/B 4.5 15:08:55 10° NW 15:28:42 75° SW 15:35:36 10° SSE
YAOGAN 1 3.8 15:32:09 27° N 15:32:09 27° N 15:34:17 10° N
Cosmos 1656 Rocket 3.5 15:26:03 10° NNW 15:31:41 71° ENE 15:35:42 19° SSE
Cosmos 1500 3.4 15:29:09 10° NNW 15:32:58 70° W 15:36:46 10° S
NOAA 15 4.5 15:30:00 10° SSE 15:35:14 69° ENE 15:40:29 10° N
MOS 1 Rocket 3.5 15:34:08 27° NNE 15:37:10 73° E 15:42:29 10° S
CZ-2C R/B 2.8 15:33:10 10° SSE 15:38:12 83° ENE 15:43:03 10° N
USA 281 3.1 15:32:31 10° SE 15:39:00 66° ENE 15:45:32 10° NNW
Cosmos 158 Rocket 3.8 15:34:17 10° SSW 15:39:15 81° WNW 15:41:04 40° NNE
Cosmos 1934 Rocket 4.0 15:33:00 10° N 15:39:15 56° E 15:45:24 10° SSE
Cosmos 2263 4.2 15:34:17 10° NNW 15:39:54 77° WSW 15:45:28 10° SSE
Cosmos 923 Rocket 4.1 15:36:52 10° SSW 15:42:03 75° WNW 15:44:26 33° N
Nadezhda 3 Rocket 4.2 15:37:26 10° SSW 15:43:47 76° W 15:50:11 10° N
CSL-04 Debris 4.3 15:45:46 53° NE 15:45:46 53° NE 15:50:22 10° N
USA 267 3.6 15:46:49 42° NE 15:47:30 43° NNE 15:53:36 10° NW
Cosmos 1238 Rocket 3.2 15:43:52 10° N 15:48:00 77° W 15:53:03 10° S
COSMO-SKYMED 1 3.9 15:45:53 12° N 15:49:30 37° WNW 15:53:30 10° SW
H-2A R/B 2.3 15:54:40 52° N 15:54:40 52° N 15:58:34 10° N
Cosmos 2228 Rocket 4.0 15:50:06 10° SSW 15:54:28 47° WNW 15:56:56 24° NNW
Cosmos 1821 Rocket 4.4 15:48:46 10° NNW 15:54:57 65° W 16:01:12 10° S
NOSS 3-3 (A) 4.4 15:49:16 10° NNW 15:56:55 77° NE 16:00:25 39° SE
NOSS 3-3 (C) 4.4 15:49:21 10° NNW 15:57:01 76° NE 16:00:25 40° SE
X-37B 3.3 15:56:10 10° WNW 15:57:12 18° WNW 15:57:12 18° WNW
Meteor 1-11 Rocket 3.7 15:54:31 10° N 16:00:22 90° WSW 16:06:17 10° S
Cosmos 1812 4.3 15:57:19 10° SW 16:00:49 33° WNW 16:01:27 31° NW
CZ-4 R/B 3.4 16:05:25 21° NNW 16:05:25 21° NNW 16:06:57 10° NNW
Cosmos 44 Rocket 3.6 16:01:50 10° NW 16:06:21 67° NW 16:06:21 67° NW
Cosmos 1680 Rocket 4.0 16:03:49 10° SSW 16:09:00 58° WNW 16:09:56 50° NNW
Lacrosse 4 Rocket 3.3 16:08:55 10° SW 16:10:38 24° SW 16:10:38 24° SW
Cosmos 2369 Rocket 4.2 16:14:49 10° NW 16:19:24 26° WSW 16:23:58 10° SSW
CENTAUR R/B 2.5 16:14:33 10° SW 16:20:21 75° NW 16:20:30 74° NW
Okean-O 4.4 16:20:35 10° SSW 16:24:30 31° W 16:28:27 10° NW
NOSS 3-2 (C) 3.6 16:22:43 10° SW 16:27:40 62° W 16:27:40 62° W
USA 215 4.1 16:59:21 42° NW 16:59:21 42° NW 17:04:43 10° W
